Fort Myers, FL

11:47 AM EDT on June 24, 2018 (GMT -0400)
Page

Weather History for KFMY - June, 2018

Change the Weather History Date:

Thursday, June 14, 2018

  Actual Average Record
Temperature  
Mean Temperature 82 °F 83 °F  
Max Temperature 90 °F 92 °F 101 °F (1981)
Min Temperature 74 °F 74 °F 65 °F (1990)
Degree Days  
Heating Degree Days 0 0  
Month to date heating degree days 0 0  
Since 1 June heating degree days 0 0  
Since 1 July heating degree days 208 287  
Cooling Degree Days 17 18  
Month to date cooling degree days 252 240  
Year to date cooling degree days 1571 1306  
Since 1 June cooling degree days 252 240  
Growing Degree Days 32 (Base 50)    
Moisture  
Dew Point 72 °F    
Average Humidity 73    
Maximum Humidity 100    
Minimum Humidity 57    
Precipitation  
Precipitation T in 0.37 in 6.44 in (1936)
Month to date precipitation 5.19 4.10  
Year to date precipitation 21.49 15.90  
Sea Level Pressure  
Sea Level Pressure 30.06 in    
Wind  
Wind Speed 4 mph (SE)    
Max Wind Speed 14 mph    
Max Gust Speed 18 mph    
Visibility 10 miles    
Events Rain , Thunderstorm    
T = Trace of Precipitation, MM = Missing Value Source: NWS Daily Summary

Daily Weather History Graph

Daily Weather History Graph

Search for Another Location

Airport or City:

Astronomy

Jun. 14, 2018 Rise Set
Actual Time 6:33 AM EDT 8:21 PM EDT
Civil Twilight 6:07 AM EDT 8:48 PM EDT
Nautical Twilight 5:36 AM EDT 9:19 PM EDT
Astronomical Twilight 5:02 AM EDT 9:52 PM EDT
Moon 7:25 AM EDT (6/14) 9:25 PM EDT (6/14)
Length of Visible Light 14h 40m
Length of Day
13h 47m
New Moon, 1% of the Moon is Illuminated
Jun 14
New Moon
Jun 20
First Quarter
Jun 28
Full
Jul 6
Last Quarter
Jul 12
New

Hourly Weather History & Observations

Time (EDT) Temp. Heat Index Dew Point Humidity Pressure Visibility Wind Dir Wind Speed Gust Speed Precip Events Conditions
12:53 AM 75.0 °F - 73.0 °F 94% 30.09 in - Calm Calm - N/A   Clear
1:53 AM 73.9 °F - 73.0 °F 97% 30.07 in - East 3.5 mph - N/A   Clear
2:53 AM 73.9 °F - 73.0 °F 97% 30.06 in - ESE 3.5 mph - N/A   Clear
3:53 AM 73.9 °F - 72.0 °F 93% 30.05 in - SE 3.5 mph - N/A   Clear
4:53 AM 73.9 °F - 73.0 °F 97% 30.05 in - Calm Calm - N/A   Clear
5:53 AM 73.9 °F - 73.0 °F 97% 30.06 in - Calm Calm - N/A   Clear
6:53 AM 75.0 °F - 73.0 °F 94% 30.05 in 10.0 mi NE 3.5 mph - N/A   Clear
7:53 AM 77.0 °F - 73.0 °F 88% 30.07 in 10.0 mi Calm Calm - N/A   Clear
8:53 AM 80.1 °F 84.2 °F 73.0 °F 79% 30.09 in 10.0 mi Calm Calm - N/A   Clear
9:53 AM 82.0 °F 87.9 °F 73.9 °F 76% 30.11 in 10.0 mi East 5.8 mph - N/A   Clear
10:53 AM 82.9 °F 89.4 °F 73.9 °F 74% 30.11 in 10.0 mi East 3.5 mph - N/A   Clear
11:53 AM 88.0 °F 94.7 °F 72.0 °F 59% 30.11 in 10.0 mi Calm Calm - N/A   Scattered Clouds
12:43 PM 87.1 °F 92.8 °F 71.1 °F 59% 30.10 in 10.0 mi South 3.5 mph - N/A Thunderstorm Clear
12:53 PM 87.1 °F 92.8 °F 71.1 °F 59% 30.10 in 10.0 mi East 3.5 mph - N/A Thunderstorm Scattered Clouds
1:29 PM 87.1 °F 93.6 °F 72.0 °F 61% 30.08 in 10.0 mi NW 5.8 mph - N/A   Mostly Cloudy
1:53 PM 86.0 °F 92.2 °F 72.0 °F 63% 30.08 in 10.0 mi NW 9.2 mph - N/A   Scattered Clouds
2:53 PM 88.0 °F 94.7 °F 72.0 °F 59% 30.06 in 10.0 mi Calm Calm - N/A   Clear
3:14 PM 89.1 °F 96.0 °F 72.0 °F 57% 30.05 in 10.0 mi NW 4.6 mph - N/A Thunderstorm Clear
3:22 PM 90.0 °F 96.4 °F 71.1 °F 54% 30.04 in 10.0 mi Variable 3.5 mph - N/A Thunderstorm Thunderstorm
3:53 PM 84.0 °F 87.8 °F 69.1 °F 61% 30.05 in 10.0 mi SSW 11.5 mph - N/A Thunderstorm Thunderstorm
4:08 PM 82.0 °F 85.9 °F 70.0 °F 67% 30.04 in 10.0 mi WSW 11.5 mph - 0.00 in Rain Light Rain
4:53 PM 86.0 °F 90.7 °F 70.0 °F 59% 30.03 in 10.0 mi West 8.1 mph - 0.00 in   Partly Cloudy
5:53 PM 88.0 °F 94.7 °F 72.0 °F 59% 30.03 in 10.0 mi Variable 4.6 mph - 0.00 in   Clear
6:53 PM 87.1 °F 92.8 °F 71.1 °F 59% 30.03 in 10.0 mi Calm Calm - N/A   Clear
7:10 PM 87.1 °F 92.0 °F 70.0 °F 57% 30.02 in 10.0 mi SSE 5.8 mph - N/A Thunderstorm Partly Cloudy
7:27 PM 84.0 °F 89.0 °F 71.1 °F 65% 30.03 in 10.0 mi SE 9.2 mph - N/A Thunderstorm Thunderstorm
7:53 PM 82.9 °F 87.5 °F 71.1 °F 67% 30.04 in 10.0 mi SSW 8.1 mph - 0.00 in Rain , Thunderstorm Light Thunderstorms and Rain
8:20 PM 81.0 °F 84.9 °F 71.1 °F 72% 30.03 in 10.0 mi WNW 5.8 mph - 0.00 in Rain Light Rain
8:53 PM 80.1 °F 83.8 °F 72.0 °F 76% 30.04 in 10.0 mi SE 3.5 mph - 0.00 in   Mostly Cloudy
9:53 PM 80.1 °F 83.8 °F 72.0 °F 76% 30.06 in 10.0 mi SSE 4.6 mph - N/A   Clear
10:53 PM 80.1 °F 84.5 °F 73.9 °F 81% 30.09 in 10.0 mi Calm Calm - N/A   Clear
11:53 PM 79.0 °F - 73.9 °F 84% 30.09 in 10.0 mi East 3.5 mph - N/A   Clear